GCFIZ EGKA-EGHH

Flight info

Callsign GCFIZ
Flight time 0h 29m
Altitude 2500
Route EGKA SHANKLIN NEEDLES EGHH
Aircraft C208/L-G/L

Departure

Time 2026-05-05 13:53
Airport Brighton City Airport (EGKA)

Arrival

Time 2026-05-05 14:22
Airport Bournemouth Airport (EGHH)
Time Latitude Longitude Altitude Speed Heading
2026-05-05 13:44 50.83404 -0.28957 10 ft 0 kts 255°
2026-05-05 13:49 50.83404 -0.28966 10 ft 6 kts 282°
2026-05-05 13:49 50.83458 -0.29048 10 ft 10 kts 296°
2026-05-05 13:50 50.83442 -0.29190 10 ft 24 kts 249°
2026-05-05 13:50 50.83369 -0.29463 10 ft 24 kts 248°
2026-05-05 13:50 50.83299 -0.29682 10 ft 19 kts 244°
2026-05-05 13:50 50.83241 -0.29840 10 ft 14 kts 207°
2026-05-05 13:51 50.83158 -0.29891 10 ft 7 kts 207°
2026-05-05 13:51 50.83155 -0.29895 10 ft 0 kts 208°
2026-05-05 13:52 50.83129 -0.29977 10 ft 9 kts 277°
2026-05-05 13:52 50.83304 -0.29888 10 ft 66 kts 22°
2026-05-05 13:52 50.83896 -0.29569 273 ft 99 kts 18°
2026-05-05 13:52 50.84667 -0.29257 512 ft 126 kts 24°
2026-05-05 13:53 50.85554 -0.28821 692 ft 146 kts
2026-05-05 13:53 50.86549 -0.29364 810 ft 159 kts 326°
2026-05-05 13:53 50.87141 -0.30861 903 ft 166 kts 285°
2026-05-05 13:53 50.87009 -0.32675 995 ft 170 kts 249°
2026-05-05 13:54 50.86254 -0.34081 1158 ft 168 kts 225°
2026-05-05 13:54 50.85386 -0.35268 1369 ft 165 kts 223°
2026-05-05 13:54 50.84539 -0.36378 1540 ft 151 kts 223°
2026-05-05 13:54 50.83754 -0.37384 1719 ft 141 kts 223°
2026-05-05 13:55 50.82996 -0.38354 1907 ft 135 kts 223°
2026-05-05 13:55 50.82275 -0.39278 2096 ft 131 kts 223°
2026-05-05 13:55 50.81598 -0.40230 2276 ft 130 kts 233°
2026-05-05 13:55 50.81082 -0.41456 2306 ft 137 kts 245°
2026-05-05 13:56 50.80655 -0.42853 2304 ft 143 kts 250°
2026-05-05 13:56 50.80273 -0.44330 2299 ft 147 kts 252°
2026-05-05 13:56 50.79900 -0.45883 2295 ft 149 kts 253°
2026-05-05 13:56 50.79528 -0.47474 2294 ft 150 kts 254°
2026-05-05 13:57 50.79147 -0.49041 2299 ft 151 kts 249°
2026-05-05 13:57 50.78766 -0.50626 2300 ft 152 kts 250°
2026-05-05 13:57 50.78390 -0.52222 2300 ft 153 kts 250°
2026-05-05 13:57 50.78022 -0.53804 2300 ft 153 kts 250°
2026-05-05 13:58 50.77652 -0.55402 2300 ft 153 kts 250°
2026-05-05 13:58 50.77287 -0.56978 2300 ft 153 kts 250°
2026-05-05 13:58 50.76920 -0.58566 2300 ft 153 kts 250°
2026-05-05 13:58 50.76555 -0.60143 2300 ft 153 kts 250°
2026-05-05 13:59 50.75820 -0.63311 2300 ft 153 kts 250°
2026-05-05 13:59 50.75452 -0.64893 2300 ft 153 kts 250°
2026-05-05 14:00 50.74711 -0.68081 2300 ft 153 kts 250°
2026-05-05 14:00 50.74465 -0.69140 2300 ft 153 kts 250°
2026-05-05 14:00 50.73967 -0.71280 2300 ft 153 kts 250°
2026-05-05 14:00 50.73593 -0.72881 2300 ft 153 kts 250°
2026-05-05 14:01 50.73219 -0.74486 2300 ft 153 kts 250°
2026-05-05 14:01 50.72844 -0.76094 2300 ft 153 kts 250°
2026-05-05 14:01 50.72474 -0.77677 2300 ft 153 kts 250°
2026-05-05 14:01 50.72100 -0.79277 2300 ft 153 kts 250°
2026-05-05 14:02 50.71730 -0.80860 2300 ft 153 kts 250°
2026-05-05 14:02 50.71357 -0.82454 2300 ft 153 kts 250°
2026-05-05 14:02 50.70987 -0.84034 2300 ft 153 kts 250°
2026-05-05 14:02 50.70613 -0.85628 2300 ft 153 kts 250°
2026-05-05 14:03 50.70233 -0.87247 2300 ft 153 kts 250°
2026-05-05 14:03 50.69854 -0.88860 2300 ft 153 kts 250°
2026-05-05 14:03 50.69478 -0.90463 2300 ft 153 kts 250°
2026-05-05 14:03 50.69105 -0.92050 2300 ft 153 kts 250°
2026-05-05 14:04 50.68731 -0.93640 2300 ft 153 kts 250°
2026-05-05 14:04 50.68348 -0.95267 2300 ft 153 kts 250°
2026-05-05 14:04 50.67969 -0.96875 2300 ft 153 kts 250°
2026-05-05 14:04 50.67585 -0.98503 2300 ft 153 kts 250°
2026-05-05 14:05 50.67214 -1.00076 2300 ft 153 kts 250°
2026-05-05 14:05 50.66842 -1.01652 2300 ft 153 kts 250°
2026-05-05 14:05 50.66466 -1.03242 2300 ft 153 kts 250°
2026-05-05 14:05 50.66089 -1.04835 2300 ft 153 kts 250°
2026-05-05 14:06 50.65714 -1.06417 2300 ft 153 kts 250°
2026-05-05 14:06 50.65340 -1.07994 2300 ft 153 kts 250°
2026-05-05 14:06 50.64967 -1.09569 2300 ft 153 kts 250°
2026-05-05 14:06 50.64590 -1.11158 2300 ft 153 kts 250°
2026-05-05 14:07 50.64209 -1.12767 2300 ft 153 kts 250°
2026-05-05 14:07 50.63835 -1.14341 2300 ft 153 kts 250°
2026-05-05 14:07 50.63458 -1.15928 2300 ft 153 kts 250°
2026-05-05 14:07 50.63154 -1.17539 2299 ft 153 kts 267°
2026-05-05 14:08 50.63186 -1.19222 2301 ft 153 kts 274°
2026-05-05 14:08 50.63293 -1.20930 2300 ft 153 kts 277°
2026-05-05 14:08 50.63417 -1.22594 2300 ft 153 kts 277°
2026-05-05 14:08 50.63548 -1.24274 2300 ft 153 kts 277°
2026-05-05 14:09 50.63680 -1.25952 2300 ft 153 kts 277°
2026-05-05 14:09 50.63811 -1.27619 2300 ft 153 kts 277°
2026-05-05 14:09 50.63943 -1.29291 2300 ft 153 kts 277°
2026-05-05 14:09 50.64074 -1.30970 2300 ft 153 kts 277°
2026-05-05 14:10 50.64207 -1.32659 2300 ft 153 kts 277°
2026-05-05 14:10 50.64337 -1.34322 2300 ft 153 kts 277°
2026-05-05 14:10 50.64449 -1.35759 2300 ft 153 kts 277°
2026-05-05 14:10 50.64582 -1.37468 2300 ft 153 kts 277°
2026-05-05 14:11 50.64713 -1.39145 2300 ft 153 kts 277°
2026-05-05 14:11 50.64845 -1.40853 2300 ft 153 kts 277°
2026-05-05 14:11 50.64977 -1.42553 2300 ft 153 kts 277°
2026-05-05 14:11 50.65109 -1.44260 2300 ft 153 kts 277°
2026-05-05 14:12 50.65237 -1.45928 2300 ft 153 kts 277°
2026-05-05 14:12 50.65366 -1.47596 2300 ft 153 kts 277°
2026-05-05 14:12 50.65496 -1.49289 2300 ft 153 kts 277°
2026-05-05 14:12 50.65624 -1.50960 2300 ft 153 kts 277°
2026-05-05 14:13 50.65752 -1.52631 2252 ft 157 kts 277°
2026-05-05 14:13 50.65886 -1.54378 2129 ft 161 kts 277°
2026-05-05 14:13 50.66023 -1.56158 2006 ft 164 kts 277°
2026-05-05 14:13 50.66164 -1.57967 1881 ft 165 kts 279°
2026-05-05 14:14 50.66621 -1.59680 1761 ft 165 kts 302°
2026-05-05 14:14 50.67246 -1.61201 1638 ft 166 kts 306°
2026-05-05 14:14 50.67920 -1.62677 1525 ft 165 kts 307°
2026-05-05 14:14 50.68593 -1.64121 1501 ft 161 kts 307°
2026-05-05 14:15 50.69249 -1.65521 1498 ft 157 kts 307°
2026-05-05 14:15 50.69893 -1.66897 1496 ft 156 kts 307°
2026-05-05 14:15 50.70536 -1.68271 1495 ft 155 kts 307°
2026-05-05 14:15 50.71161 -1.69599 1487 ft 146 kts 307°
2026-05-05 14:16 50.71756 -1.70872 1481 ft 140 kts 307°
2026-05-05 14:16 50.72326 -1.72093 1477 ft 137 kts 306°
2026-05-05 14:16 50.72882 -1.73285 1474 ft 134 kts 306°
2026-05-05 14:16 50.73433 -1.74466 1473 ft 133 kts 306°
2026-05-05 14:17 50.73982 -1.75640 1472 ft 132 kts 306°
2026-05-05 14:17 50.74530 -1.76816 1472 ft 132 kts 306°
2026-05-05 14:17 50.75074 -1.77982 1471 ft 131 kts 306°
2026-05-05 14:17 50.75619 -1.79149 1471 ft 131 kts 306°
2026-05-05 14:18 50.76208 -1.80224 1466 ft 131 kts 328°
2026-05-05 14:18 50.77074 -1.80656 1480 ft 130 kts 347°
2026-05-05 14:18 50.77940 -1.80964 1471 ft 124 kts 345°
2026-05-05 14:18 50.78702 -1.81295 1440 ft 104 kts 341°
2026-05-05 14:19 50.79353 -1.81641 1294 ft 94 kts 330°
2026-05-05 14:19 50.79716 -1.82378 1185 ft 81 kts 275°
2026-05-05 14:19 50.79340 -1.83082 1019 ft 95 kts 214°
2026-05-05 14:19 50.78939 -1.83829 1079 ft 96 kts 251°
2026-05-05 14:20 50.78818 -1.84919 1029 ft 107 kts 270°
2026-05-05 14:20 50.78822 -1.86126 971 ft 114 kts 272°
2026-05-05 14:20 50.78863 -1.87350 856 ft 105 kts 279°
2026-05-05 14:20 50.78903 -1.88427 708 ft 92 kts 257°
2026-05-05 14:21 50.78450 -1.88981 541 ft 87 kts 183°
2026-05-05 14:21 50.77861 -1.88820 452 ft 87 kts 154°
2026-05-05 14:21 50.77525 -1.88039 327 ft 90 kts 101°
2026-05-05 14:21 50.77549 -1.87062 227 ft 91 kts 76°
2026-05-05 14:22 50.77699 -1.86139 126 ft 84 kts 74°
2026-05-05 14:22 50.77835 -1.85286 44 ft 72 kts 73°
2026-05-05 14:22 50.77944 -1.84629 43 ft 52 kts 75°
2026-05-05 14:22 50.78025 -1.84152 43 ft 35 kts 73°
2026-05-05 14:23 50.78085 -1.83922 43 ft 17 kts 12°
2026-05-05 14:23 50.78188 -1.83954 43 ft 13 kts 345°
2026-05-05 14:23 50.78210 -1.83963 43 ft 0 kts 345°
2026-05-05 14:23 50.78271 -1.83987 43 ft 14 kts 344°
2026-05-05 14:24 50.78380 -1.84033 43 ft 16 kts 346°
2026-05-05 14:24 50.78467 -1.84009 43 ft 11 kts 89°
2026-05-05 14:24 50.78449 -1.83889 43 ft 11 kts 104°
2026-05-05 14:24 50.78430 -1.83765 43 ft 11 kts 105°
2026-05-05 14:25 50.78410 -1.83636 43 ft 12 kts 104°
2026-05-05 14:25 50.78384 -1.83499 43 ft 13 kts 112°
2026-05-05 14:25 50.78359 -1.83354 43 ft 13 kts 88°
2026-05-05 14:25 50.78374 -1.83201 43 ft 14 kts 72°
2026-05-05 14:26 50.78396 -1.83046 43 ft 14 kts 84°
2026-05-05 14:26 50.78392 -1.82903 43 ft 11 kts 45°
2026-05-05 14:26 50.78442 -1.82905 43 ft 5 kts 288°
2026-05-05 14:26 50.78450 -1.82913 43 ft 1 kts 65°
2026-05-05 14:27 50.78449 -1.82909 43 ft 0 kts 109°